Regional Weather Roundup
Issued by NWS

Home | Current Version | Previous Version | Text Only | Print | Product List | Glossary On
Versions: 1 2 3 4 5 6 7 8 9 10 11 12 13 14 15 16 17 18 19 20 21 22 23 24 25 26 27 28 29 30 31 32 33 34 35 36 37 38 39 40 41 42 43 44 45 46 47 48 49 50
000
ASUS43 KDTX 290710
RWRMI
MICHIGAN HOURLY REGIONAL WEATHER ROUNDUP
NATIONAL WEATHER SERVICE DETROIT/PONTIAC MI
200 AM EST THU JAN 29 2015

NOTE: "FAIR" INDICATES FEW OR NO CLOUDS BELOW 12,000 FEET WITH NO
SIGNIFICANT WEATHER AND/OR OBSTRUCTION TO VISIBILITY.

MIZ047>049-052>055-059>063-066>070-074>076-081>083-290800-
SOUTHEAST LOWER MICHIGAN

CITY           SKY/WX    TMP DP  RH WIND       PRES   REMARKS
ADRIAN         CLOUDY    26  17  68 S10       30.04F WCI  16
ALMA           CLOUDY    27  18  69 SE9       29.94F WCI  17
ANN ARBOR      CLOUDY    25  16  68 SE7       30.03F WCI  17
BAD AXE        CLOUDY    24  16  70 S14       30.04F WCI  12
CARO           CLOUDY    26  14  58 SE8       30.01F WCI  18
DETROIT CITY   CLOUDY    28  14  55 S13       30.07F WCI  17
DETROIT        CLOUDY    26  15  63 SE9       30.08F WCI  17
FLINT          CLOUDY    28  16  60 S12       30.01F WCI  18
GROSSE ILE     CLOUDY    27  18  69 SE12      30.06F WCI  16
HILLSDALE      CLOUDY    26  17  71 S12G18    29.95F WCI  15
HOWELL         CLOUDY    25  15  64 SE15      29.98F WCI  13

CITY           SKY/WX    TMP DP  RH WIND       PRES   REMARKS
JACKSON        CLOUDY    28  16  60 S14G23    29.95F WCI  17
LAMBERTVILLE   CLOUDY    30  18  59 S9G16     30.04F WCI  22
LANSING        CLOUDY    27  16  63 S20G28    29.95F WCI  13
LAPEER         CLOUDY    26  14  62 S8        30.04F WCI  17
MASON          CLOUDY    26  17  68 S15       29.95F WCI  13
MONROE         CLOUDY    27  18  69 SE8       30.05F WCI  18
MT. CLEMENS    CLOUDY    25  17  70 SE13      30.06F WCI  13
PONTIAC        CLOUDY    25  14  63 S10       30.02F WCI  15
PORT HOPE        N/A     25  13  60 S9        30.04F WCI  15
PORT HURON     CLOUDY    25  16  68 S10G16    30.08F WCI  15
TRI CITIES     CLOUDY    28  15  58 SE14G22   29.97F WCI  17
TROY           CLOUDY    28  14  56 S8        30.08F WCI  20
SAGINAW HB     CLOUDY    28  18  64 SE13      29.99F WCI  18
$$
MIZ043>046-050>051-056>058-064>065-071>073-077>080-290800-
SOUTHWEST LOWER MICHIGAN

CITY           SKY/WX    TMP DP  RH WIND       PRES   REMARKS
BATTLE CREEK   CLOUDY    30  18  60 S14       29.91F WCI  19
BENTON HARBOR  FRZ RAIN  30  26  85 SE13      29.85F WCI  20
BIG RAPIDS     CLOUDY    26  16  65 SE10G16   29.89F WCI  17
COLDWATER      CLOUDY    28  19  69 S14G21    29.93F WCI  17
FREMONT        FAIR      27  14  57 SE7       29.87F WCI  19
HOLLAND        CLOUDY    31  20  63 SE12      29.87F WCI  22
GRAND RAPIDS   CLOUDY    29  17  61 SE10      29.89F WCI  20
IONIA          CLOUDY    28  19  71 S13       29.92F WCI  17
KALAMAZOO      CLOUDY    29  18  63 S9G18     29.90F WCI  20
LUDINGTON      CLOUDY    31  16  54 SE9       29.86F WCI  23
MARSHALL       CLOUDY    28  18  66 SE12      29.93F WCI  17
MOUNT PLEASANT CLOUDY    26  16  66 SE8       29.94F WCI  18
MUSKEGON       MOCLDY    29  18  63 SE9       29.87F WCI  20
SOUTH HAVEN    LGT SNOW  32  25  76 S9G17     29.86F WCI  24
$$
MIZ016>042-290800-
NORTHERN LOWER MICHIGAN

CITY           SKY/WX    TMP DP  RH WIND       PRES   REMARKS
ALPENA         CLOUDY    26  13  57 S14       29.98F WCI  14
BEAVER ISLAND  CLOUDY    28  16  60 CALM      29.88F
BELLAIRE       CLOUDY    30  11  45 SE7       29.90F WCI  23
CADILLAC       CLOUDY    25  13  60 SE10      29.86F WCI  15
CHARLEVOIX     CLOUDY    29  11  47 SE7       29.91F WCI  22
FRANKFORT      CLOUDY    30  13  49 SE9       29.86F WCI  22
GAYLORD        CLOUDY    24   9  52 S13       29.87F WCI  12
GRAYLING       CLOUDY    26  10  50 SE8       29.90F WCI  17
HARBOR SPRINGS CLOUDY    28  13  53 E5        29.89F WCI  22
HOUGHTON LAKE  CLOUDY    24  10  55 SE9       29.91F WCI  14
MANISTEE       CLOUDY    30  10  43 SE7       29.87F WCI  23
OSCODA         CLOUDY    25  13  60 S9        30.01F WCI  16
PELLSTON       CLOUDY    28  11  48 SE13      29.89F WCI  17
ROGERS CITY    CLOUDY    27  15  61 S14G21    29.94F WCI  15
TRAVERSE CITY  CLOUDY    29  11  47 SE5       29.87F WCI  24
$$
MIZ007>008-015-290800-
EASTERN UPPER MICHIGAN

CITY           SKY/WX    TMP DP  RH WIND       PRES   REMARKS
KINROSS        CLOUDY    27  18  69 SE10      29.90F WCI  17
MACKINAC ISLAN CLOUDY    28  11  48 SE8       29.89F WCI  20
NEWBERRY       CLOUDY    26  14  62 S8        29.86F WCI  17
S. S. MARIE    CLOUDY    26  17  68 E7        29.92F WCI  18
MUNISING         N/A     31  20  63 S8        29.83F WCI  23
$$
MIZ004>006-011>014-085-290800-
CENTRAL UPPER MICHIGAN

CITY           SKY/WX    TMP DP  RH WIND       PRES   REMARKS
MANISTIQUE     CLOUDY    30  21  68 S9        29.85F WCI  22
ESCANABA       CLOUDY    30  23  74 SE5       29.83F WCI  25
MENOMINEE      CLOUDY    32  25  74 S6        29.81F WCI  26
SAWYER-GWINN   CLOUDY    28  21  76 S8        29.79F WCI  19
$$
MIZ001>003-009>011-084-290800-
WESTERN UPPER MICHIGAN

CITY           SKY/WX    TMP DP  RH WIND       PRES   REMARKS
IRON MOUNTAIN  CLOUDY    27  24  89 S3        29.78F FOG
HOUGHTON       LGT SNOW  27  23  85 S5        29.77F FOG     WCI  22
COPPER HARBOR    N/A     30  26  85 SW7       29.79F WCI  23
IRONWOOD       CLOUDY    27  25  93 W9        29.77S WCI  17
$$

ABBREVIATIONS USED IN REMARKS
   TC - TEMPERATURE IN CELSIUS
  WCI - WIND CHILL INDEX
   HX - HEAT INDEX
  VSB - VISIBILITY



USA.gov is the U.S. government's official web portal to all federal, state and local government web resources and services.